Year,Month,Day,Hour,Minute,Value (Times are PST for temperature in C)
2009,05,29,00,00,12.50
2009,05,29,00,01,12.50
2009,05,29,00,02,12.40
2009,05,29,00,03,12.40
2009,05,29,00,04,12.40
2009,05,29,00,05,12.40
2009,05,29,00,06,12.40
2009,05,29,00,07,12.40
2009,05,29,00,08,12.40
2009,05,29,00,09,12.40
2009,05,29,00,10,12.40
2009,05,29,00,11,12.40
2009,05,29,00,12,12.40
2009,05,29,00,13,12.30
2009,05,29,00,14,12.30
2009,05,29,00,15,12.30
2009,05,29,00,16,12.30
2009,05,29,00,17,12.30
2009,05,29,00,18,12.30
2009,05,29,00,19,12.30
2009,05,29,00,20,12.30
2009,05,29,00,21,12.30
2009,05,29,00,22,12.30
2009,05,29,00,23,12.20
2009,05,29,00,24,12.20
2009,05,29,00,25,12.20
2009,05,29,00,26,12.20
2009,05,29,00,27,12.20
2009,05,29,00,28,12.20
2009,05,29,00,29,12.20
2009,05,29,00,30,12.20
2009,05,29,00,31,12.20
2009,05,29,00,32,12.20
2009,05,29,00,33,12.10
2009,05,29,00,34,12.10
2009,05,29,00,35,12.10
2009,05,29,00,36,12.10
2009,05,29,00,37,12.00
2009,05,29,00,38,12.00
2009,05,29,00,39,11.90
2009,05,29,00,40,11.90
2009,05,29,00,41,11.90
2009,05,29,00,42,11.90
2009,05,29,00,43,11.90
2009,05,29,00,44,11.80
2009,05,29,00,45,11.80
2009,05,29,00,46,11.80
2009,05,29,00,47,11.80
2009,05,29,00,48,11.80
2009,05,29,00,49,11.80
2009,05,29,00,50,11.90
2009,05,29,00,51,11.90
2009,05,29,00,52,11.90
2009,05,29,00,53,12.00
2009,05,29,00,54,12.00
2009,05,29,00,55,12.10
2009,05,29,00,56,12.10
2009,05,29,00,57,12.10
2009,05,29,00,58,12.10
2009,05,29,00,59,12.10
2009,05,29,01,00,12.10
2009,05,29,01,01,12.20
2009,05,29,01,02,12.20
2009,05,29,01,03,12.20
2009,05,29,01,04,12.10
2009,05,29,01,05,12.10
2009,05,29,01,06,12.10
2009,05,29,01,07,12.10
2009,05,29,01,08,12.10
2009,05,29,01,09,12.10
2009,05,29,01,10,12.20
2009,05,29,01,11,12.20
2009,05,29,01,12,12.20
2009,05,29,01,13,12.20
2009,05,29,01,14,12.20
2009,05,29,01,15,12.20
2009,05,29,01,16,12.20
2009,05,29,01,17,12.20
2009,05,29,01,18,12.30
2009,05,29,01,19,12.30
2009,05,29,01,20,12.30
2009,05,29,01,21,12.30
2009,05,29,01,22,12.30
2009,05,29,01,23,12.20
2009,05,29,01,24,12.20
2009,05,29,01,25,12.20
2009,05,29,01,26,12.20
2009,05,29,01,27,12.20
2009,05,29,01,28,12.20
2009,05,29,01,29,12.20
2009,05,29,01,30,12.20
2009,05,29,01,31,12.20
2009,05,29,01,32,12.20
2009,05,29,01,33,12.20
2009,05,29,01,34,12.20
2009,05,29,01,35,12.10
2009,05,29,01,36,12.10
2009,05,29,01,37,12.10
2009,05,29,01,38,12.10
2009,05,29,01,39,12.10
2009,05,29,01,40,12.10
2009,05,29,01,41,12.10
2009,05,29,01,42,12.10
2009,05,29,01,43,12.10
2009,05,29,01,44,12.10
2009,05,29,01,45,12.10
2009,05,29,01,46,12.00
2009,05,29,01,47,12.00
2009,05,29,01,48,11.90
2009,05,29,01,49,11.90
2009,05,29,01,50,11.80
2009,05,29,01,51,11.80
2009,05,29,01,52,11.80
2009,05,29,01,53,11.70
2009,05,29,01,54,11.70
2009,05,29,01,55,11.60
2009,05,29,01,56,11.60
2009,05,29,01,57,11.60
2009,05,29,01,58,11.60
2009,05,29,01,59,11.60
2009,05,29,02,00,11.60
2009,05,29,02,01,11.60
2009,05,29,02,02,11.60
2009,05,29,02,03,11.60
2009,05,29,02,04,11.60
2009,05,29,02,05,11.60
2009,05,29,02,06,11.60
2009,05,29,02,07,11.60
2009,05,29,02,08,11.60
2009,05,29,02,09,11.60
2009,05,29,02,10,11.60
2009,05,29,02,11,11.60
2009,05,29,02,12,11.60
2009,05,29,02,13,11.50
2009,05,29,02,14,11.50
2009,05,29,02,15,11.50
2009,05,29,02,16,11.50
2009,05,29,02,17,11.40
2009,05,29,02,18,11.40
2009,05,29,02,19,11.40
2009,05,29,02,20,11.40
2009,05,29,02,21,11.40
2009,05,29,02,22,11.40
2009,05,29,02,23,11.40
2009,05,29,02,24,11.40
2009,05,29,02,25,11.40
2009,05,29,02,26,11.40
2009,05,29,02,27,11.40
2009,05,29,02,28,11.40
2009,05,29,02,29,11.40
2009,05,29,02,30,11.40
2009,05,29,02,31,11.40
2009,05,29,02,32,11.40
2009,05,29,02,33,11.30
2009,05,29,02,34,11.30
2009,05,29,02,35,11.30
2009,05,29,02,36,11.30
2009,05,29,02,37,11.30
2009,05,29,02,38,11.30
2009,05,29,02,39,11.20
2009,05,29,02,40,11.20
2009,05,29,02,41,11.20
2009,05,29,02,42,11.10
2009,05,29,02,43,11.10
2009,05,29,02,44,11.10
2009,05,29,02,45,11.10
2009,05,29,02,46,11.10
2009,05,29,02,47,11.00
2009,05,29,02,48,11.00
2009,05,29,02,49,11.00
2009,05,29,02,50,10.90
2009,05,29,02,51,10.90
2009,05,29,02,52,10.90
2009,05,29,02,53,10.80
2009,05,29,02,54,10.80
2009,05,29,02,55,10.80
2009,05,29,02,56,10.80
2009,05,29,02,57,10.80
2009,05,29,02,58,10.90
2009,05,29,02,59,10.90
2009,05,29,03,00,10.90
2009,05,29,03,01,10.90
2009,05,29,03,02,10.90
2009,05,29,03,03,10.90
2009,05,29,03,04,10.90
2009,05,29,03,05,10.90
2009,05,29,03,06,10.80
2009,05,29,03,07,10.80
2009,05,29,03,08,10.80
2009,05,29,03,09,10.80
2009,05,29,03,10,10.90
2009,05,29,03,11,10.90
2009,05,29,03,12,10.90
2009,05,29,03,13,10.90
2009,05,29,03,14,10.90
2009,05,29,03,15,10.90
2009,05,29,03,16,10.90
2009,05,29,03,17,10.80
2009,05,29,03,18,10.80
2009,05,29,03,19,10.80
2009,05,29,03,20,10.80
2009,05,29,03,21,10.90
2009,05,29,03,22,10.90
2009,05,29,03,23,10.90
2009,05,29,03,24,10.90
2009,05,29,03,25,10.90
2009,05,29,03,26,10.90
2009,05,29,03,27,10.90
2009,05,29,03,28,10.90
2009,05,29,03,29,10.90
2009,05,29,03,30,10.90
2009,05,29,03,31,10.90
2009,05,29,03,32,10.90
2009,05,29,03,33,10.90
2009,05,29,03,34,10.90
2009,05,29,03,35,10.90
2009,05,29,03,36,10.90
2009,05,29,03,37,10.90
2009,05,29,03,38,10.90
2009,05,29,03,39,10.90
2009,05,29,03,40,10.90
2009,05,29,03,41,10.90
2009,05,29,03,42,10.90
2009,05,29,03,43,10.90
2009,05,29,03,44,10.90
2009,05,29,03,45,10.90
2009,05,29,03,46,10.90
2009,05,29,03,47,10.90
2009,05,29,03,48,10.90
2009,05,29,03,49,10.90
2009,05,29,03,50,10.80
2009,05,29,03,51,10.80
2009,05,29,03,52,10.80
2009,05,29,03,53,10.80
2009,05,29,03,54,10.80
2009,05,29,03,55,10.80
2009,05,29,03,56,10.80
2009,05,29,03,57,10.80
2009,05,29,03,58,10.80
2009,05,29,03,59,10.70
2009,05,29,04,00,10.70
2009,05,29,04,01,10.70
2009,05,29,04,02,10.70
2009,05,29,04,03,10.70
2009,05,29,04,04,10.70
2009,05,29,04,05,10.70
2009,05,29,04,06,10.70
2009,05,29,04,07,10.70
2009,05,29,04,08,10.70
2009,05,29,04,09,10.70
2009,05,29,04,10,10.70
2009,05,29,04,11,10.70
2009,05,29,04,12,10.70
2009,05,29,04,13,10.70
2009,05,29,04,14,10.70
2009,05,29,04,15,10.70
2009,05,29,04,16,10.70
2009,05,29,04,17,10.70
2009,05,29,04,18,10.70
2009,05,29,04,19,10.70
2009,05,29,04,20,10.70
2009,05,29,04,21,10.70
2009,05,29,04,22,10.70
2009,05,29,04,23,10.70
2009,05,29,04,24,10.70
2009,05,29,04,25,10.70
2009,05,29,04,26,10.70
2009,05,29,04,27,10.60
2009,05,29,04,28,10.60
2009,05,29,04,29,10.60
2009,05,29,04,30,10.60
2009,05,29,04,31,10.60
2009,05,29,04,32,10.60
2009,05,29,04,33,10.50
2009,05,29,04,34,10.50
2009,05,29,04,35,10.40
2009,05,29,04,36,10.40
2009,05,29,04,37,10.40
2009,05,29,04,38,10.40
2009,05,29,04,39,10.40
2009,05,29,04,40,10.40
2009,05,29,04,41,10.40
2009,05,29,04,42,10.40
2009,05,29,04,43,10.40
2009,05,29,04,44,10.40
2009,05,29,04,45,10.30
2009,05,29,04,46,10.30
2009,05,29,04,47,10.40
2009,05,29,04,48,10.40
2009,05,29,04,49,10.40
2009,05,29,04,50,10.40
2009,05,29,04,51,10.40
2009,05,29,04,52,10.40
2009,05,29,04,53,10.40
2009,05,29,04,54,10.40
2009,05,29,04,55,10.40
2009,05,29,04,56,10.40
2009,05,29,04,57,10.40
2009,05,29,04,58,10.30
2009,05,29,04,59,10.30
2009,05,29,05,00,10.30
2009,05,29,05,01,10.30
2009,05,29,05,02,10.30
2009,05,29,05,03,10.30
2009,05,29,05,04,10.40
2009,05,29,05,05,10.40
2009,05,29,05,06,10.40
2009,05,29,05,07,10.40
2009,05,29,05,08,10.40
2009,05,29,05,09,10.40
2009,05,29,05,10,10.40
2009,05,29,05,11,10.30
2009,05,29,05,12,10.30
2009,05,29,05,13,10.30
2009,05,29,05,14,10.30
2009,05,29,05,15,10.30
2009,05,29,05,16,10.30
2009,05,29,05,17,10.30
2009,05,29,05,18,10.20
2009,05,29,05,19,10.20
2009,05,29,05,20,10.20
2009,05,29,05,21,10.20
2009,05,29,05,22,10.20
2009,05,29,05,23,10.20
2009,05,29,05,24,10.20
2009,05,29,05,25,10.20
2009,05,29,05,26,10.20
2009,05,29,05,27,10.10
2009,05,29,05,28,10.10
2009,05,29,05,29,10.10
2009,05,29,05,30,10.10
2009,05,29,05,31,10.00
2009,05,29,05,32,10.00
2009,05,29,05,33,10.00
2009,05,29,05,34,9.90
2009,05,29,05,35,9.90
2009,05,29,05,36,9.90
2009,05,29,05,37,9.90
2009,05,29,05,38,9.90
2009,05,29,05,39,9.90
2009,05,29,05,40,9.90
2009,05,29,05,41,9.90
2009,05,29,05,42,9.90
2009,05,29,05,43,10.00
2009,05,29,05,44,10.00
2009,05,29,05,45,10.00
2009,05,29,05,46,10.00
2009,05,29,05,47,10.00
2009,05,29,05,48,10.10
2009,05,29,05,49,10.10
2009,05,29,05,50,10.10
2009,05,29,05,51,10.10
2009,05,29,05,52,10.10
2009,05,29,05,53,10.10
2009,05,29,05,54,10.10
2009,05,29,05,55,10.20
2009,05,29,05,56,10.20
2009,05,29,05,57,10.20
2009,05,29,05,58,10.20
2009,05,29,05,59,10.20
2009,05,29,06,00,10.20
2009,05,29,06,01,10.20
2009,05,29,06,02,10.20
2009,05,29,06,03,10.20
2009,05,29,06,04,10.20
2009,05,29,06,05,10.30
2009,05,29,06,06,10.30
2009,05,29,06,07,10.30
2009,05,29,06,08,10.30
2009,05,29,06,09,10.30
2009,05,29,06,10,10.30
2009,05,29,06,11,10.30
2009,05,29,06,12,10.30
2009,05,29,06,13,10.30
2009,05,29,06,14,10.30
2009,05,29,06,15,10.30
2009,05,29,06,16,10.30
2009,05,29,06,17,10.40
2009,05,29,06,18,10.40
2009,05,29,06,19,10.40
2009,05,29,06,20,10.40
2009,05,29,06,21,10.40
2009,05,29,06,22,10.40
2009,05,29,06,23,10.40
2009,05,29,06,24,10.40
2009,05,29,06,25,10.50
2009,05,29,06,26,10.50
2009,05,29,06,27,10.60
2009,05,29,06,28,10.60
2009,05,29,06,29,10.60
2009,05,29,06,30,10.60
2009,05,29,06,31,10.60
2009,05,29,06,32,10.70
2009,05,29,06,33,10.70
2009,05,29,06,34,10.70
2009,05,29,06,35,10.70
2009,05,29,06,36,10.80
2009,05,29,06,37,10.80
2009,05,29,06,38,10.80
2009,05,29,06,39,10.80
2009,05,29,06,40,10.80
2009,05,29,06,41,10.80
2009,05,29,06,42,10.80
2009,05,29,06,43,10.90
2009,05,29,06,44,10.90
2009,05,29,06,45,10.90
2009,05,29,06,46,11.00
2009,05,29,06,47,11.00
2009,05,29,06,48,11.00
2009,05,29,06,49,11.00
2009,05,29,06,50,11.10
2009,05,29,06,51,11.10
2009,05,29,06,52,11.10
2009,05,29,06,53,11.20
2009,05,29,06,54,11.20
2009,05,29,06,55,11.20
2009,05,29,06,56,11.20
2009,05,29,06,57,11.20
2009,05,29,06,58,11.20
2009,05,29,06,59,11.20
2009,05,29,07,00,11.30
2009,05,29,07,01,11.30
2009,05,29,07,02,11.30
2009,05,29,07,03,11.30
2009,05,29,07,04,11.30
2009,05,29,07,05,11.40
2009,05,29,07,06,11.40
2009,05,29,07,07,11.40
2009,05,29,07,08,11.40
2009,05,29,07,09,11.50
2009,05,29,07,10,11.60
2009,05,29,07,11,11.60
2009,05,29,07,12,11.60
2009,05,29,07,13,11.70
2009,05,29,07,14,11.70
2009,05,29,07,15,11.70
2009,05,29,07,16,11.80
2009,05,29,07,17,11.80
2009,05,29,07,18,11.80
2009,05,29,07,19,11.80
2009,05,29,07,20,11.90
2009,05,29,07,21,11.90
2009,05,29,07,22,11.90
2009,05,29,07,23,12.00
2009,05,29,07,24,12.00
2009,05,29,07,25,12.10
2009,05,29,07,26,12.20
2009,05,29,07,27,12.20
2009,05,29,07,28,12.20
2009,05,29,07,29,12.30
2009,05,29,07,30,12.30
2009,05,29,07,31,12.40
2009,05,29,07,32,12.40
2009,05,29,07,33,12.50
2009,05,29,07,34,12.50
2009,05,29,07,35,12.60
2009,05,29,07,36,12.70
2009,05,29,07,37,12.70
2009,05,29,07,38,12.70
2009,05,29,07,39,12.80
2009,05,29,07,40,12.80
2009,05,29,07,41,12.90
2009,05,29,07,42,12.90
2009,05,29,07,43,13.00
2009,05,29,07,44,13.00
2009,05,29,07,45,13.10
2009,05,29,07,46,13.20
2009,05,29,07,47,13.20
2009,05,29,07,48,13.20
2009,05,29,07,49,13.30
2009,05,29,07,50,13.30
2009,05,29,07,51,13.30
2009,05,29,07,52,13.30
2009,05,29,07,53,13.30
2009,05,29,07,54,13.30
2009,05,29,07,55,13.60
2009,05,29,07,56,13.60
2009,05,29,07,57,13.70
2009,05,29,07,58,13.70
2009,05,29,07,59,13.80
2009,05,29,08,00,13.80
2009,05,29,08,01,13.90
2009,05,29,08,02,13.90
2009,05,29,08,03,14.00
2009,05,29,08,04,14.10
2009,05,29,08,05,14.10
2009,05,29,08,06,14.20
2009,05,29,08,07,14.20
2009,05,29,08,08,14.30
2009,05,29,08,09,14.30
2009,05,29,08,10,14.40
2009,05,29,08,11,14.40
2009,05,29,08,12,14.50
2009,05,29,08,13,14.50
2009,05,29,08,14,14.60
2009,05,29,08,15,14.70
2009,05,29,08,16,14.80
2009,05,29,08,17,14.90
2009,05,29,08,18,15.00
2009,05,29,08,19,15.00
2009,05,29,08,20,15.00
2009,05,29,08,21,15.10
2009,05,29,08,22,15.20
2009,05,29,08,23,15.30
2009,05,29,08,24,15.30
2009,05,29,08,25,15.40
2009,05,29,08,26,15.50
2009,05,29,08,27,15.60
2009,05,29,08,28,15.60
2009,05,29,08,29,15.70
2009,05,29,08,30,15.80
2009,05,29,08,31,15.90
2009,05,29,08,32,15.90
2009,05,29,08,33,16.00
2009,05,29,08,34,16.10
2009,05,29,08,35,16.20
2009,05,29,08,36,16.20
2009,05,29,08,37,16.30
2009,05,29,08,38,16.40
2009,05,29,08,39,16.40
2009,05,29,08,40,16.50
2009,05,29,08,41,16.60
2009,05,29,08,42,16.60
2009,05,29,08,43,16.70
2009,05,29,08,44,16.80
2009,05,29,08,45,16.80
2009,05,29,08,46,16.90
2009,05,29,08,47,17.00
2009,05,29,08,48,17.00
2009,05,29,08,49,17.10
2009,05,29,08,50,17.10
2009,05,29,08,51,17.20
2009,05,29,08,52,17.20
2009,05,29,08,53,17.20
2009,05,29,08,54,17.20
2009,05,29,08,55,17.20
2009,05,29,08,56,17.30
2009,05,29,08,57,17.30
2009,05,29,08,58,17.30
2009,05,29,08,59,17.40
2009,05,29,09,00,17.40
2009,05,29,09,01,17.40
2009,05,29,09,02,17.40
2009,05,29,09,03,17.50
2009,05,29,09,04,17.50
2009,05,29,09,05,17.50
2009,05,29,09,06,17.60
2009,05,29,09,07,17.60
2009,05,29,09,08,17.60
2009,05,29,09,09,17.70
2009,05,29,09,10,17.70
2009,05,29,09,11,17.80
2009,05,29,09,12,17.90
2009,05,29,09,13,18.00
2009,05,29,09,14,18.10
2009,05,29,09,15,18.10
2009,05,29,09,16,18.20
2009,05,29,09,17,18.20
2009,05,29,09,18,18.30
2009,05,29,09,19,18.40
2009,05,29,09,20,18.40
2009,05,29,09,21,18.50
2009,05,29,09,22,18.50
2009,05,29,09,23,18.60
2009,05,29,09,24,18.60
2009,05,29,09,25,18.70
2009,05,29,09,26,18.70
2009,05,29,09,27,18.80
2009,05,29,09,28,18.80
2009,05,29,09,29,18.90
2009,05,29,09,30,18.90
2009,05,29,09,31,19.00
2009,05,29,09,32,19.10
2009,05,29,09,33,19.20
2009,05,29,09,34,19.30
2009,05,29,09,35,19.40
2009,05,29,09,36,19.50
2009,05,29,09,37,19.60
2009,05,29,09,38,19.70
2009,05,29,09,39,19.80
2009,05,29,09,40,19.90
2009,05,29,09,41,20.00
2009,05,29,09,42,20.10
2009,05,29,09,43,20.20
2009,05,29,09,44,20.30
2009,05,29,09,45,20.50
2009,05,29,09,46,20.60
2009,05,29,09,47,20.80
2009,05,29,09,48,20.90
2009,05,29,09,49,21.10
2009,05,29,09,50,21.20
2009,05,29,09,51,21.30
2009,05,29,09,52,21.30
2009,05,29,09,53,21.40
2009,05,29,09,54,21.60
2009,05,29,09,55,21.70
2009,05,29,09,56,21.80
2009,05,29,09,57,21.90
2009,05,29,09,58,22.00
2009,05,29,09,59,22.10
2009,05,29,10,00,22.20
2009,05,29,10,01,22.30
2009,05,29,10,02,22.30
2009,05,29,10,03,22.30
2009,05,29,10,04,22.40
2009,05,29,10,05,22.40
2009,05,29,10,06,22.40
2009,05,29,10,07,22.40
2009,05,29,10,08,22.30
2009,05,29,10,09,22.30
2009,05,29,10,10,22.30
2009,05,29,10,11,22.30
2009,05,29,10,12,22.30
2009,05,29,10,13,22.20
2009,05,29,10,14,22.10
2009,05,29,10,15,22.00
2009,05,29,10,16,22.00
2009,05,29,10,17,22.00
2009,05,29,10,18,22.00
2009,05,29,10,19,22.10
2009,05,29,10,20,22.10
2009,05,29,10,21,22.20
2009,05,29,10,22,22.20
2009,05,29,10,23,22.30
2009,05,29,10,24,22.40
2009,05,29,10,25,22.40
2009,05,29,10,26,22.50
2009,05,29,10,27,22.60
2009,05,29,10,28,22.70
2009,05,29,10,29,22.80
2009,05,29,10,30,22.80
2009,05,29,10,31,22.90
2009,05,29,10,32,22.90
2009,05,29,10,33,22.90
2009,05,29,10,34,22.90
2009,05,29,10,35,22.90
2009,05,29,10,36,22.90
2009,05,29,10,37,22.90
2009,05,29,10,38,22.90
2009,05,29,10,39,22.90
2009,05,29,10,40,22.90
2009,05,29,10,41,23.00
2009,05,29,10,42,22.90
2009,05,29,10,43,22.90
2009,05,29,10,44,22.80
2009,05,29,10,45,22.80
2009,05,29,10,46,22.80
2009,05,29,10,47,22.70
2009,05,29,10,48,22.70
2009,05,29,10,49,22.70
2009,05,29,10,50,22.70
2009,05,29,10,51,22.80
2009,05,29,10,52,22.80
2009,05,29,10,53,22.80
2009,05,29,10,54,22.90
2009,05,29,10,55,22.90
2009,05,29,10,56,23.00
2009,05,29,10,57,23.10
2009,05,29,10,58,23.20
2009,05,29,10,59,23.20
2009,05,29,11,00,23.30
2009,05,29,11,01,23.40
2009,05,29,11,02,23.40
2009,05,29,11,03,23.50
2009,05,29,11,04,23.60
2009,05,29,11,05,23.60
2009,05,29,11,06,23.60
2009,05,29,11,07,23.60
2009,05,29,11,08,23.60
2009,05,29,11,09,23.60
2009,05,29,11,10,23.60
2009,05,29,11,11,23.50
2009,05,29,11,12,23.50
2009,05,29,11,13,23.50
2009,05,29,11,14,23.40
2009,05,29,11,15,23.40
2009,05,29,11,16,23.40
2009,05,29,11,17,23.40
2009,05,29,11,18,23.40
2009,05,29,11,19,23.40
2009,05,29,11,20,23.50
2009,05,29,11,21,23.50
2009,05,29,11,22,23.40
2009,05,29,11,23,23.40
2009,05,29,11,24,23.40
2009,05,29,11,25,23.20
2009,05,29,11,26,23.20
2009,05,29,11,27,23.10
2009,05,29,11,28,23.20
2009,05,29,11,29,23.20
2009,05,29,11,30,23.20
2009,05,29,11,31,23.30
2009,05,29,11,32,23.30
2009,05,29,11,33,23.30
2009,05,29,11,34,23.40
2009,05,29,11,35,23.40
2009,05,29,11,36,23.50
2009,05,29,11,37,23.60
2009,05,29,11,38,23.60
2009,05,29,11,39,23.60
2009,05,29,11,40,23.70
2009,05,29,11,41,23.70
2009,05,29,11,42,23.80
2009,05,29,11,43,23.80
2009,05,29,11,44,23.90
2009,05,29,11,45,24.00
2009,05,29,11,46,24.00
2009,05,29,11,47,24.00
2009,05,29,11,48,24.00
2009,05,29,11,49,23.90
2009,05,29,11,50,23.90
2009,05,29,11,51,23.80
2009,05,29,11,52,23.80
2009,05,29,11,53,23.70
2009,05,29,11,54,23.70
2009,05,29,11,55,23.70
2009,05,29,11,56,23.70
2009,05,29,11,57,23.60
2009,05,29,11,58,23.60
2009,05,29,11,59,23.60
2009,05,29,12,00,23.60
2009,05,29,12,01,23.60
2009,05,29,12,02,23.60
2009,05,29,12,03,23.60
2009,05,29,12,04,23.60
2009,05,29,12,05,23.60
2009,05,29,12,06,23.70
2009,05,29,12,07,23.70
2009,05,29,12,08,23.70
2009,05,29,12,09,23.80
2009,05,29,12,10,23.80
2009,05,29,12,11,23.90
2009,05,29,12,12,23.90
2009,05,29,12,13,24.00
2009,05,29,12,14,24.00
2009,05,29,12,15,24.10
2009,05,29,12,16,24.10
2009,05,29,12,17,24.20
2009,05,29,12,18,24.20
2009,05,29,12,19,24.20
2009,05,29,12,20,24.20
2009,05,29,12,21,24.30
2009,05,29,12,22,24.30
2009,05,29,12,23,24.30
2009,05,29,12,24,24.30
2009,05,29,12,25,24.30
2009,05,29,12,26,24.30
2009,05,29,12,27,24.40
2009,05,29,12,28,24.50
2009,05,29,12,29,24.40
2009,05,29,12,30,24.50
2009,05,29,12,31,24.50
2009,05,29,12,32,24.60
2009,05,29,12,33,24.70
2009,05,29,12,34,24.80
2009,05,29,12,35,24.80
2009,05,29,12,36,24.90
2009,05,29,12,37,24.90
2009,05,29,12,38,24.90
2009,05,29,12,39,24.90
2009,05,29,12,40,25.00
2009,05,29,12,41,25.10
2009,05,29,12,42,25.10
2009,05,29,12,43,25.20
2009,05,29,12,44,25.20
2009,05,29,12,45,25.20
2009,05,29,12,46,25.20
2009,05,29,12,47,25.30
2009,05,29,12,48,25.30
2009,05,29,12,49,25.30
2009,05,29,12,50,25.40
2009,05,29,12,51,25.40
2009,05,29,12,52,25.40
2009,05,29,12,53,25.40
2009,05,29,12,54,25.40
2009,05,29,12,55,25.40
2009,05,29,12,56,25.30
2009,05,29,12,57,25.20
2009,05,29,12,58,25.10
2009,05,29,12,59,25.00
2009,05,29,13,00,25.00
2009,05,29,13,01,25.00
2009,05,29,13,02,25.00
2009,05,29,13,03,25.00
2009,05,29,13,04,25.10
2009,05,29,13,05,25.10
2009,05,29,13,06,25.10
2009,05,29,13,07,25.20
2009,05,29,13,08,25.20
2009,05,29,13,09,25.20
2009,05,29,13,10,25.10
2009,05,29,13,11,25.00
2009,05,29,13,12,24.90
2009,05,29,13,13,24.90
2009,05,29,13,14,24.90
2009,05,29,13,15,24.80
2009,05,29,13,16,24.90
2009,05,29,13,17,24.90
2009,05,29,13,18,24.90
2009,05,29,13,19,25.00
2009,05,29,13,20,25.10
2009,05,29,13,21,25.10
2009,05,29,13,22,25.10
2009,05,29,13,23,25.00
2009,05,29,13,24,24.90
2009,05,29,13,25,24.90
2009,05,29,13,26,24.90
2009,05,29,13,27,24.90
2009,05,29,13,28,24.90
2009,05,29,13,29,24.90
2009,05,29,13,30,24.90
2009,05,29,13,31,24.90
2009,05,29,13,32,24.90
2009,05,29,13,33,24.90
2009,05,29,13,34,24.80
2009,05,29,13,35,24.80
2009,05,29,13,36,24.80
2009,05,29,13,37,24.80
2009,05,29,13,38,24.90
2009,05,29,13,39,25.00
2009,05,29,13,40,25.10
2009,05,29,13,41,25.10
2009,05,29,13,42,25.10
2009,05,29,13,43,25.10
2009,05,29,13,44,25.10
2009,05,29,13,45,25.10
2009,05,29,13,46,25.10
2009,05,29,13,47,25.10
2009,05,29,13,48,25.10
2009,05,29,13,49,25.10
2009,05,29,13,50,25.20
2009,05,29,13,51,25.20
2009,05,29,13,52,25.20
2009,05,29,13,53,25.20
2009,05,29,13,54,25.20
2009,05,29,13,55,25.30
2009,05,29,13,56,25.30
2009,05,29,13,57,25.40
2009,05,29,13,58,25.40
2009,05,29,13,59,25.40
2009,05,29,14,00,25.50
2009,05,29,14,01,25.40
2009,05,29,14,02,25.30
2009,05,29,14,03,25.20
2009,05,29,14,04,25.10
2009,05,29,14,05,25.10
2009,05,29,14,06,25.10
2009,05,29,14,07,25.20
2009,05,29,14,08,25.20
2009,05,29,14,09,25.30
2009,05,29,14,10,25.30
2009,05,29,14,11,25.40
2009,05,29,14,12,25.40
2009,05,29,14,13,25.40
2009,05,29,14,14,25.40
2009,05,29,14,15,25.30
2009,05,29,14,16,25.20
2009,05,29,14,17,25.20
2009,05,29,14,18,25.10
2009,05,29,14,19,25.20
2009,05,29,14,20,25.20
2009,05,29,14,21,25.30
2009,05,29,14,22,25.40
2009,05,29,14,23,25.60
2009,05,29,14,24,25.70
2009,05,29,14,25,25.80
2009,05,29,14,26,25.90
2009,05,29,14,27,26.00
2009,05,29,14,28,26.10
2009,05,29,14,29,26.20
2009,05,29,14,30,26.30
2009,05,29,14,31,26.40
2009,05,29,14,32,26.50
2009,05,29,14,33,26.50
2009,05,29,14,34,26.60
2009,05,29,14,35,26.60
2009,05,29,14,36,26.70
2009,05,29,14,37,26.70
2009,05,29,14,38,26.80
2009,05,29,14,39,26.90
2009,05,29,14,40,26.90
2009,05,29,14,41,26.90
2009,05,29,14,42,27.00
2009,05,29,14,43,27.00
2009,05,29,14,44,27.10
2009,05,29,14,45,27.10
2009,05,29,14,46,27.10
2009,05,29,14,47,27.10
2009,05,29,14,48,27.10
2009,05,29,14,49,27.10
2009,05,29,14,50,27.10
2009,05,29,14,51,27.10
2009,05,29,14,52,27.00
2009,05,29,14,53,26.90
2009,05,29,14,54,26.90
2009,05,29,14,55,26.90
2009,05,29,14,56,26.90
2009,05,29,14,57,26.90
2009,05,29,14,58,26.90
2009,05,29,14,59,26.80
2009,05,29,15,00,26.70
2009,05,29,15,01,26.60
2009,05,29,15,02,26.40
2009,05,29,15,03,26.20
2009,05,29,15,04,26.00
2009,05,29,15,05,25.90
2009,05,29,15,06,25.90
2009,05,29,15,07,25.90
2009,05,29,15,08,25.90
2009,05,29,15,09,25.70
2009,05,29,15,10,25.70
2009,05,29,15,11,25.70
2009,05,29,15,12,25.70
2009,05,29,15,13,25.80
2009,05,29,15,14,25.90
2009,05,29,15,15,25.90
2009,05,29,15,16,26.00
2009,05,29,15,17,26.10
2009,05,29,15,18,26.20
2009,05,29,15,19,26.30
2009,05,29,15,20,26.40
2009,05,29,15,21,26.50
2009,05,29,15,22,26.70
2009,05,29,15,23,26.80
2009,05,29,15,24,26.90
2009,05,29,15,25,27.00
2009,05,29,15,26,27.10
2009,05,29,15,27,27.20
2009,05,29,15,28,27.20
2009,05,29,15,29,27.30
2009,05,29,15,30,27.30
2009,05,29,15,31,27.30
2009,05,29,15,32,27.30
2009,05,29,15,33,27.30
2009,05,29,15,34,27.30
2009,05,29,15,35,27.30
2009,05,29,15,36,27.30
2009,05,29,15,37,27.30
2009,05,29,15,38,27.30
2009,05,29,15,39,27.20
2009,05,29,15,40,27.20
2009,05,29,15,41,27.30
2009,05,29,15,42,27.40
2009,05,29,15,43,27.50
2009,05,29,15,44,27.50
2009,05,29,15,45,27.60
2009,05,29,15,46,27.70
2009,05,29,15,47,27.70
2009,05,29,15,48,27.80
2009,05,29,15,49,27.80
2009,05,29,15,50,27.90
2009,05,29,15,51,28.00
2009,05,29,15,52,28.00
2009,05,29,15,53,28.00
2009,05,29,15,54,28.00
2009,05,29,15,55,27.90
2009,05,29,15,56,27.90
2009,05,29,15,57,27.90
2009,05,29,15,58,27.80
2009,05,29,15,59,27.90
2009,05,29,16,00,27.90
2009,05,29,16,01,28.00
2009,05,29,16,02,28.00
2009,05,29,16,03,28.00
2009,05,29,16,04,28.10
2009,05,29,16,05,28.10
2009,05,29,16,06,28.10
2009,05,29,16,07,28.10
2009,05,29,16,08,28.10
2009,05,29,16,09,28.10
2009,05,29,16,10,28.10
2009,05,29,16,11,28.00
2009,05,29,16,12,27.90
2009,05,29,16,13,27.90
2009,05,29,16,14,27.80
2009,05,29,16,15,27.80
2009,05,29,16,16,27.80
2009,05,29,16,17,27.70
2009,05,29,16,18,27.60
2009,05,29,16,19,27.60
2009,05,29,16,20,27.60
2009,05,29,16,21,27.60
2009,05,29,16,22,27.60
2009,05,29,16,23,27.60
2009,05,29,16,24,27.60
2009,05,29,16,25,27.60
2009,05,29,16,26,27.50
2009,05,29,16,27,27.60
2009,05,29,16,28,27.60
2009,05,29,16,29,27.70
2009,05,29,16,30,27.80
2009,05,29,16,31,27.90
2009,05,29,16,32,28.00
2009,05,29,16,33,28.10
2009,05,29,16,34,28.10
2009,05,29,16,35,28.10
2009,05,29,16,36,28.10
2009,05,29,16,37,28.00
2009,05,29,16,38,28.00
2009,05,29,16,39,27.90
2009,05,29,16,40,27.80
2009,05,29,16,41,27.80
2009,05,29,16,42,27.70
2009,05,29,16,43,27.70
2009,05,29,16,44,27.70
2009,05,29,16,45,27.70
2009,05,29,16,46,27.60
2009,05,29,16,47,27.60
2009,05,29,16,48,27.50
2009,05,29,16,49,27.50
2009,05,29,16,50,27.40
2009,05,29,16,51,27.40
2009,05,29,16,52,27.40
2009,05,29,16,53,27.40
2009,05,29,16,54,27.40
2009,05,29,16,55,27.40
2009,05,29,16,56,27.40
2009,05,29,16,57,27.40
2009,05,29,16,58,27.30
2009,05,29,16,59,27.30
2009,05,29,17,00,27.30
2009,05,29,17,01,27.30
2009,05,29,17,02,27.30
2009,05,29,17,03,27.30
2009,05,29,17,04,27.30
2009,05,29,17,05,27.30
2009,05,29,17,06,27.30
2009,05,29,17,07,27.20
2009,05,29,17,08,27.20
2009,05,29,17,09,27.20
2009,05,29,17,10,27.20
2009,05,29,17,11,27.10
2009,05,29,17,12,27.10
2009,05,29,17,13,27.10
2009,05,29,17,14,27.00
2009,05,29,17,15,27.00
2009,05,29,17,16,27.00
2009,05,29,17,17,27.00
2009,05,29,17,18,27.10
2009,05,29,17,19,27.10